| time (UTC) | temp F | wind direction | speed MPH | gust MPH | rain 1hr in | rain 24hr in | rain mn in | humidity % | barometer mb |
| 20260510070851 | 47 | 5 | 0.0 | 0.0 | 0.01 | 0.13 | 0.12 | 61 | 1006.8 |
| 20260510065851 | 47 | 5 | 0.0 | 2.0 | 0.03 | 0.13 | 0.12 | 61 | 1006.9 |
| 20260510063851 | 47 | 257 | 0.0 | 1.0 | 0.04 | 0.13 | 0.12 | 61 | 1006.9 |
| 20260510061851 | 47 | 257 | 0.0 | 2.0 | 0.06 | 0.13 | 0.12 | 62 | 1006.9 |
| 20260510060851 | 48 | 257 | 0.0 | 2.0 | 0.06 | 0.12 | 0.11 | 62 | 1007.0 |
| 20260510054851 | 48 | 257 | 0.0 | 2.0 | 0.08 | 0.10 | 0.09 | 62 | 1007.2 |
| 20260510053851 | 48 | 257 | 0.0 | 2.0 | 0.08 | 0.09 | 0.08 | 62 | 1007.2 |
| 20260510052851 | 48 | 257 | 0.0 | 2.0 | 0.07 | 0.08 | 0.07 | 62 | 1007.1 |
| 20260510051851 | 48 | 289 | 0.0 | 2.0 | 0.06 | 0.07 | 0.06 | 63 | 1007.1 |
| 20260510050852 | 48 | 284 | 0.0 | 2.0 | 0.05 | 0.06 | 0.05 | 63 | 1006.9 |
| 20260510044851 | 48 | 287 | 0.0 | 4.0 | 0.01 | 0.02 | 0.01 | 64 | 1007.0 |
| 20260510043921 | 48 | 239 | 1.0 | 4.0 | 0.00 | 0.01 | 0.00 | 64 | 1006.7 |
| 20260510041851 | 48 | 239 | 0.0 | 4.0 | 0.00 | 0.01 | 0.00 | 63 | 1006.8 |
| 20260510040851 | 48 | 187 | 0.0 | 3.0 | 0.00 | 0.01 | 0.00 | 63 | 1006.8 |
| 20260510035851 | 48 | 277 | 0.0 | 4.0 | 0.00 | 0.01 | 0.00 | 64 | 1006.7 |
| 20260510034851 | 48 | 69 | 0.0 | 3.0 | 0.00 | 0.01 | 0.01 | 64 | 1006.8 |
| 20260510033851 | 48 | 292 | 0.0 | 2.0 | 0.00 | 0.01 | 0.01 | 64 | 1006.7 |
| 20260510032851 | 48 | 291 | 0.0 | 3.0 | 0.00 | 0.01 | 0.01 | 62 | 1006.4 |
| 20260510031851 | 48 | 276 | 0.0 | 5.0 | 0.00 | 0.01 | 0.01 | 61 | 1006.2 |
| 20260510030851 | 47 | 157 | 3.0 | 7.0 | 0.00 | 0.01 | 0.01 | 61 | 1006.1 |
| 20260510025851 | 47 | 102 | 4.0 | 5.0 | 0.00 | 0.01 | 0.01 | 62 | 1006.3 |
| 20260510024851 | 46 | 182 | 0.0 | 2.0 | 0.00 | 0.01 | 0.01 | 63 | 1006.4 |
| 20260510023850 | 46 | 182 | 2.0 | 2.0 | 0.00 | 0.01 | 0.01 | 63 | 1006.7 |
| 20260510022851 | 47 | 197 | 0.0 | 2.0 | 0.00 | 0.01 | 0.01 | 62 | 1007.0 |
| 20260510021851 | 47 | 197 | 0.0 | 2.0 | 0.00 | 0.01 | 0.01 | 62 | 1006.6 |
| 20260510020851 | 46 | 197 | 0.0 | 1.0 | 0.00 | 0.01 | 0.01 | 63 | 1006.6 |
| 20260510015851 | 46 | 197 | 0.0 | 1.0 | 0.00 | 0.01 | 0.01 | 63 | 1006.8 |
| 20260510014851 | 46 | 197 | 0.0 | 2.0 | 0.00 | 0.01 | 0.01 | 63 | 1006.9 |
| 20260510012851 | 46 | 197 | 0.0 | 1.0 | 0.00 | 0.01 | 0.01 | 64 | 1006.8 |
| 20260510011851 | 46 | 197 | 0.0 | 0.0 | 0.00 | 0.01 | 0.01 | 64 | 1006.7 |
| 20260510010851 | 46 | 197 | 0.0 | 1.0 | 0.00 | 0.01 | 0.01 | 64 | 1006.5 |
| 20260510005851 | 46 | 197 | 0.0 | 1.0 | 0.00 | 0.01 | 0.01 | 64 | 1006.7 |
| 20260510004851 | 46 | 197 | 0.0 | 1.0 | 0.00 | 0.01 | 0.01 | 64 | 1006.2 |
| 20260510003851 | 46 | 197 | 0.0 | 1.0 | 0.00 | 0.01 | 0.01 | 64 | 1006.3 |
| 20260510002851 | 46 | 197 | 0.0 | 0.0 | 0.00 | 0.01 | 0.01 | 64 | 1006.3 |
| 20260510001851 | 46 | 197 | 0.0 | 1.0 | 0.00 | 0.01 | 0.01 | 64 | 1006.2 |
| 20260510000851 | 46 | 197 | 0.0 | 1.0 | 0.00 | 0.01 | 0.01 | 64 | 1006.4 |
| 20260509234851 | 46 | 197 | 0.0 | 0.0 | 0.00 | 0.01 | 0.01 | 65 | 1006.4 |
| 20260509232851 | 46 | 197 | 0.0 | 0.0 | 0.00 | 0.01 | 0.01 | 65 | 1006.0 |
| 20260509231850 | 46 | 197 | 0.0 | 1.0 | 0.00 | 0.01 | 0.01 | 65 | 1005.9 |
| 20260509230921 | 46 | 197 | 0.0 | 2.0 | 0.00 | 0.01 | 0.01 | 66 | 1005.8 |
| 20260509225851 | 46 | 197 | 0.0 | 0.0 | 0.00 | 0.01 | 0.01 | 66 | 1005.9 |
| 20260509222851 | 46 | 197 | 0.0 | 1.0 | 0.01 | 0.01 | 0.01 | 67 | 1005.4 |
| 20260509221851 | 46 | 197 | 0.0 | 2.0 | 0.01 | 0.01 | 0.01 | 68 | 1005.4 |
| 20260509215851 | 46 | 197 | 0.0 | 1.0 | 0.01 | 0.01 | 0.01 | 69 | 1005.6 |
| 20260509214851 | 46 | 197 | 0.0 | 0.0 | 0.01 | 0.01 | 0.01 | 70 | 1005.5 |
| 20260509213850 | 46 | 197 | 0.0 | 1.0 | 0.00 | 0.00 | 0.00 | 71 | 1005.6 |
| 20260509211850 | 47 | 197 | 0.0 | 0.0 | 0.00 | 0.00 | 0.00 | 72 | 1005.7 |
| 20260509210850 | 47 | 197 | 0.0 | 1.0 | 0.00 | 0.00 | 0.00 | 74 | 1005.8 |
| 20260509205850 | 47 | 197 | 0.0 | 1.0 | 0.00 | 0.00 | 0.00 | 75 | 1005.9 |
| 20260509204850 | 47 | 197 | 1.0 | 2.0 | 0.00 | 0.00 | 0.00 | 76 | 1005.8 |
| 20260509203850 | 47 | 200 | 1.0 | 2.0 | 0.00 | 0.00 | 0.00 | 76 | 1005.8 |
| 20260509201851 | 47 | 209 | 0.0 | 4.0 | 0.00 | 0.00 | 0.00 | 77 | 1006.0 |
| 20260509195850 | 47 | 287 | 2.0 | 5.0 | 0.00 | 0.00 | 0.00 | 77 | 1006.1 |
| 20260509194850 | 47 | 129 | 0.0 | 4.0 | 0.00 | 0.00 | 0.00 | 77 | 1006.1 |
| 20260509193850 | 46 | 146 | 0.0 | 5.0 | 0.00 | 0.00 | 0.00 | 77 | 1006.3 |
| 20260509192850 | 46 | 155 | 0.0 | 2.0 | 0.00 | 0.00 | 0.00 | 77 | 1006.4 |
| 20260509190850 | 47 | 128 | 0.0 | 1.0 | 0.00 | 0.00 | 0.00 | 77 | 1006.3 |
| 20260509185850 | 47 | 128 | 0.0 | 4.0 | 0.00 | 0.00 | 0.00 | 77 | 1006.4 |
| 20260509184851 | 47 | 219 | 0.0 | 3.0 | 0.00 | 0.00 | 0.00 | 77 | 1006.5 |
| 20260509183851 | 47 | 178 | 0.0 | 4.0 | 0.00 | 0.00 | 0.00 | 77 | 1006.6 |
| 20260509181851 | 47 | 112 | 1.0 | 5.0 | 0.00 | 0.00 | 0.00 | 77 | 1006.7 |
| 20260509180850 | 47 | 150 | 0.0 | 3.0 | 0.00 | 0.00 | 0.00 | 77 | 1006.7 |
| 20260509175851 | 47 | 93 | 0.0 | 5.0 | 0.00 | 0.00 | 0.00 | 77 | 1006.8 |
| 20260509174951 | 47 | 213 | 0.0 | 3.0 | 0.00 | 0.00 | 0.00 | 77 | 1006.9 |
| 20260509172851 | 47 | 217 | 0.0 | 2.0 | 0.00 | 0.00 | 0.00 | 77 | 1007.0 |
| 20260509171850 | 46 | 227 | 0.0 | 2.0 | 0.00 | 0.00 | 0.00 | 77 | 1007.1 |
| 20260509165850 | 46 | 227 | 2.0 | 2.0 | 0.00 | 0.00 | 0.00 | 77 | 1007.2 |
| 20260509164920 | 46 | 227 | 0.0 | 3.0 | 0.00 | 0.00 | 0.00 | 77 | 1007.5 |
| 20260509155850 | 47 | 236 | 0.0 | 4.0 | 0.00 | 0.00 | 0.00 | 75 | 1008.1 |
| 20260509154850 | 47 | 229 | 0.0 | 4.0 | 0.00 | 0.00 | 0.00 | 73 | 1008.4 |
| 20260509153850 | 48 | 144 | 2.0 | 5.0 | 0.00 | 0.00 | 0.00 | 71 | 1008.4 |
| 20260509152850 | 48 | 129 | 1.0 | 7.0 | 0.00 | 0.00 | 0.00 | 71 | 1008.3 |
| 20260509151849 | 48 | 192 | 0.0 | 4.0 | 0.00 | 0.00 | 0.00 | 70 | 1008.4 |
| 20260509145850 | 47 | 161 | 0.0 | 5.0 | 0.00 | 0.00 | 0.00 | 69 | 1008.5 |
| 20260509142850 | 48 | 99 | 2.0 | 9.0 | 0.00 | 0.00 | 0.00 | 66 | 1008.6 |
| 20260509141850 | 48 | 127 | 3.0 | 7.0 | 0.00 | 0.00 | 0.00 | 65 | 1008.7 |
| 20260509135850 | 47 | 298 | 0.0 | 1.0 | 0.00 | 0.00 | 0.00 | 61 | 1008.7 |
| 20260509134850 | 46 | 298 | 0.0 | 3.0 | 0.00 | 0.00 | 0.00 | 61 | 1008.8 |
| 20260509133850 | 46 | 313 | 2.0 | 3.0 | 0.00 | 0.00 | 0.00 | 63 | 1008.8 |
| 20260509132850 | 46 | 235 | 0.0 | 2.0 | 0.00 | 0.00 | 0.00 | 63 | 1008.8 |
| 20260509131850 | 45 | 235 | 0.0 | 2.0 | 0.00 | 0.00 | 0.00 | 63 | 1008.8 |
| 20260509125850 | 43 | 106 | 0.0 | 3.0 | 0.00 | 0.00 | 0.00 | 66 | 1009.2 |
| 20260509124849 | 42 | 323 | 0.0 | 0.0 | 0.00 | 0.00 | 0.00 | 69 | 1009.4 |
| 20260509123850 | 41 | 323 | 0.0 | 0.0 | 0.00 | 0.00 | 0.00 | 73 | 1009.3 |
| 20260509122849 | 40 | 323 | 0.0 | 0.0 | 0.00 | 0.00 | 0.00 | 77 | 1009.5 |
| 20260509121850 | 38 | 323 | 0.0 | 0.0 | 0.00 | 0.00 | 0.00 | 78 | 1009.4 |
| 20260509120849 | 37 | 323 | 0.0 | 0.0 | 0.00 | 0.00 | 0.00 | 79 | 1009.4 |
| 20260509115850 | 36 | 323 | 0.0 | 0.0 | 0.00 | 0.00 | 0.00 | 78 | 1009.3 |
| 20260509114850 | 34 | 323 | 0.0 | 0.0 | 0.00 | 0.00 | 0.00 | 78 | 1009.7 |
| 20260509113849 | 33 | 323 | 0.0 | 0.0 | 0.00 | 0.00 | 0.00 | 76 | 1009.7 |
| 20260509111850 | 31 | 323 | 0.0 | 0.0 | 0.00 | 0.00 | 0.00 | 75 | 1009.6 |
| 20260509105849 | 28 | 323 | 0.0 | 1.0 | 0.00 | 0.00 | 0.00 | 73 | 1009.3 |
| 20260509104850 | 27 | 302 | 0.0 | 0.0 | 0.00 | 0.00 | 0.00 | 75 | 1009.5 |
| 20260509103850 | 26 | 302 | 0.0 | 0.0 | 0.00 | 0.00 | 0.00 | 75 | 1009.3 |
| 20260509102849 | 25 | 302 | 0.0 | 0.0 | 0.00 | 0.00 | 0.00 | 76 | 1009.3 |
| 20260509101849 | 25 | 302 | 0.0 | 0.0 | 0.00 | 0.00 | 0.00 | 77 | 1009.3 |
| 20260509100850 | 25 | 302 | 0.0 | 0.0 | 0.00 | 0.00 | 0.00 | 77 | 1009.5 |
| 20260509094949 | 25 | 302 | 0.0 | 0.0 | 0.00 | 0.00 | 0.00 | 77 | 1009.4 |
| 20260509093850 | 25 | 302 | 0.0 | 0.0 | 0.00 | 0.00 | 0.00 | 77 | 1009.2 |
| 20260509092849 | 25 | 302 | 0.0 | 0.0 | 0.00 | 0.00 | 0.00 | 77 | 1009.2 |
| 20260509090850 | 25 | 302 | 0.0 | 0.0 | 0.00 | 0.00 | 0.00 | 77 | 1009.3 |
| 20260509085850 | 25 | 302 | 0.0 | 0.0 | 0.00 | 0.00 | 0.00 | 78 | 1009.4 |
| 20260509083950 | 26 | 302 | 0.0 | 0.0 | 0.00 | 0.00 | 0.00 | 78 | 1009.4 |
| 20260509082850 | 26 | 302 | 0.0 | 0.0 | 0.00 | 0.00 | 0.00 | 77 | 1009.3 |
| 20260509081849 | 26 | 302 | 0.0 | 0.0 | 0.00 | 0.00 | 0.00 | 77 | 1009.2 |
| 20260509080850 | 26 | 302 | 0.0 | 0.0 | 0.00 | 0.00 | 0.00 | 78 | 1009.1 |
| 20260509071849 | 26 | 302 | 0.0 | 0.0 | 0.00 | 0.00 | 0.00 | 78 | 1009.2 |